Regional Weather Roundup
Issued by NWS Midland/Odessa, TX

Skip options and go directly to product.
Home | Oldest Version | Previous Version | Current Version | All | Text Only | Save Text | Print | Product List | Glossary Off

Skip product version selection by date and time.   

301
ASUS44 KMAF 040910
RWRMAF
MIDLAND AREA WEATHER ROUNDUP
NATIONAL WEATHER SERVICE MIDLAND TX
400 AM CDT TUE AUG 04 2015

...IN SOUTHWEST TEXAS AND SOUTHEAST NEW MEXICO...

CITY           SKY/WX    TMP DP  RH WIND       PRES   REMARKS
ALPINE         PTCLDY    67  60  80 SW7       30.16S
ANDREWS        FAIR      69  68  94 CALM      30.01S
ARTESIA        CLEAR     68  68 100 S7        30.02S
BIG SPRING     MOCLDY    71  65  81 E7        29.98F
CARLSBAD       CLEAR     71  63  75 S3        30.00F
DRYDEN           N/A     82  61  48 VRB3      29.95F
FORT STOCKTON  PTCLDY    73  64  73 S9        30.00F
GUAD PASS      PTCLDY    68  55  63 SW12      30.16F
HOBBS            N/A    N/A N/A N/A MISG        N/A
MARFA          MOCLDY    66  61  82 S6        30.14F
MIDLAND AIRPK  MOCLDY    73  68  86 SE3       29.99S
MIDLAND INTL   MOCLDY    71  68  90 SE6       29.98F
ODESSA         MOCLDY    72  67  84 S6        30.00S
PECOS          MOCLDY    74  64  70 E3        29.99R
PRESIDIO       FAIR      76  63  64 MISG      29.99S THUNDER
SEMINOLE       MOCLDY    68  67  95 CALM      30.02S
SNYDER         MOCLDY    73  64  73 SE3       29.95F
WINK           PTCLDY    72  69  90 S5        29.99S
$$
...OTHER STATIONS IN TEXAS...

CITY           SKY/WX    TMP DP  RH WIND       PRES   REMARKS
ABILENE        PTCLDY    78  59  51 SW5       29.95F
AMARILLO       CLOUDY    69  64  84 NW10      30.09R
AUSTIN         PTCLDY    75  71  87 CALM      29.94S
BROWNSVILLE    CLEAR     76  75  97 S5        29.89F
CORPUS CHRISTI PTCLDY    80  77  90 S7        29.90S
DALLAS FTW     PTCLDY    82  63  52 S9        29.90R
DEL RIO        CLEAR     80  69  69 E7        29.90S
EL PASO        PTCLDY    76  59  55 SE7       30.02S
HOUSTON INT    PTCLDY    77  74  90 CALM      29.93R
LUBBOCK        MOCLDY    69  63  81 W7        29.99F
SAN ANGELO     PTCLDY    78  61  55 S3        29.95F
SAN ANTONIO    MOCLDY    81  74  79 S10       29.95S
WACO           PTCLDY    82  69  64 S12       29.91S
WICHITA FALLS  NOT AVBL
$$
...OTHER LOCATIONS IN NEW MEXICO...

CITY           SKY/WX    TMP DP  RH WIND       PRES   REMARKS
ALAMAGORDO     MOCLDY    75  57  53 SW12      30.07R
ALBUQUERQUE    PTCLDY    72  49  44 W5        30.14S
CANNON AFB     CLEAR     65  62  90 S9        30.05F
CLOVIS         PTCLDY    64  61  88 S7        30.06F
HOLLOMAN AFB   MOCLDY    75  60  57 S10       30.05R
ROSWELL        CLEAR     67  63  87 S6        30.01F
RUIDOSO          N/A    N/A N/A N/A MISG        N/A
SANTA FE       CLEAR     57  49  74 N7        30.20R
TRUTH OR CONSE MOCLDY    74  59  59 S10       30.10R
TUCUMCARI      CLEAR     68  63  84 E9        30.05S
$$

USA.gov is the U.S. government's official web portal to all federal, state and local government web resources and services.